Regional Weather Roundup
Issued by NWS

Home | Current Version | Previous Version | Text Only | Print | Product List | Glossary Off
Versions: 1 2 3 4 5 6 7 8 9 10 11 12 13 14 15 16 17 18 19 20 21 22 23 24 25 26 27 28 29 30 31 32 33 34 35 36 37 38 39 40 41 42 43 44 45 46 47 48

000
ASUS45 KBOI 242310
RWRID
WEATHER ROUNDUP FOR IDAHO
NATIONAL WEATHER SERVICE BOISE ID
400 PM MST WED DEC 24 2014

NOTE: "FAIR" INDICATES FEW OR NO CLOUDS BELOW 12000 FEET
WITH NO SIGNIFICANT WEATHER AND/OR OBSTRUCTIONS TO VISIBILITY

IDZ012-014-250000-
SOUTHWEST IDAHO


CITY           SKY/WX    TMP DP  RH WIND       PRES   REMARKS
BOISE          LGT RAIN  34  31  88 CALM      29.51F
CALDWELL       CLOUDY    34  27  75 CALM      29.54F
MOUNTAIN HOME  LGT RAIN  37  32  81 E15       29.50F WCI  28
$$

IDZ016-017-250000-
SOUTHCENTRAL IDAHO


CITY           SKY/WX    TMP DP  RH WIND       PRES   REMARKS
JEROME         LGT RAIN  33  30  88 NE17      29.57F WCI  22
TWIN FALLS     CLOUDY    38  32  79 N3        29.56F
$$

IDZ019>023-250000-
SOUTHEAST IDAHO


CITY           SKY/WX    TMP DP  RH WIND       PRES   REMARKS
IDAHO FALLS    LGT SNOW  34  27  75 SW15      29.65F WCI  24
POCATELLO      CLOUDY    35  28  75 E8        29.64F WCI  29
REXBURG        LGT SNOW  32  27  81 SW10      29.64F WCI  24
$$

IDZ006-010-011-018-031-032-250000-
CENTRAL IDAHO MOUNTAINS


CITY           SKY/WX    TMP DP  RH WIND       PRES   REMARKS
MCCALL         SNOW      31  30  96 SW5       29.47F VSB 1/2 WCI  26
HAILEY         SNOW      28  28 100 CALM      29.58F VSB 1/2
STANLEY          N/A     32  28  85 SE15      29.47F WCI  22
SALMON         CLOUDY    30  27  86 CALM      29.52F
CHALLIS        SNOW      28  26  92 NW3       29.52F VSB 1/2
$$

IDZ002-004-006-007-026-250000-
NORTHERN IDAHO


CITY           SKY/WX    TMP DP  RH WIND       PRES   REMARKS
LEWISTON       CLOUDY    39  35  86 W7        29.68R WCI  34
LOWELL           N/A     39  37  92 CALM      29.63R
COEUR D`ALENE  NOT AVBL
MULLAN PASS    SNOW      27  23  85 N9G18     29.46S VSB 1/4 WCI  18
$$



USA.gov is the U.S. government's official web portal to all federal, state and local government web resources and services.